Flag for Russia Weather past 2 weeks in Khanty-Mansiysk, Russia

Now
23 °F

Sunny.


Feels Like: 14 °F
Forecast: 15 / 23 °F
Wind: 8 mph from Southwest

Location: Hanty-Mansijsk

Current Time: Mar 2, 2015 at 9:25:12 AM

Latest Report: Mar 2, 2015 at 9:00 AM


Visibility: 10 mi

Pressure: 30.18 "Hg

Humidity: 63%

Dew point: 12 °F

Location of Khanty-MansiyskLocation

Historic Weather in Khanty-Mansiysk — Graph

°F

Khanty-Mansiysk temperature yesterday

Maximum temperature yesterday: 32 °F (at 2:30 PM)
Minimum temperature yesterday: 19 °F (at 2:30 AM)
Average temperature yesterday: 27 °F

Past Weeks' High & Low Weather Summary

 TemperatureHumidityPressure
High36 °F (Feb 26, 7:30 PM)93% (Feb 22, 7:00 AM)30.42 "Hg (Feb 22, 7:00 AM)
Low-24 °F (Feb 18, 3:30 AM)48% (Feb 20, 5:30 PM)29.53 "Hg (Feb 22, 1:00 AM)
Average15 °F77%30.05 "Hg
* Reported Feb 15 8:00 AM — Mar 2 8:30 AM, Khanty-Mansiysk, Weather by CustomWeather, © 2015

Note: Actual official high and low records may vary slightly from our data, if they occured in-between our weather recording intervals... More about our weather records

Advertising

Khanty-Mansiysk weather history for previous 24 hours

 ConditionsComfort  
Time TempWeatherWind HumidityBarometerVisibility
8:30 AM
Mon, Mar 2
21 °FSunny.6 mph68%30.18 "Hg10 mi
8:00 AM21 °FClear.6 mph68%30.21 "Hg10 mi
7:30 AM21 °FClear.6 mph68%30.21 "Hg10 mi
7:00 AM21 °FClear.8 mph68%30.21 "Hg10 mi
6:30 AM21 °FClear.8 mph74%30.21 "Hg10 mi
6:00 AM21 °FClear.6 mph74%30.21 "Hg10 mi
5:30 AM23 °FClear.8 mph74%30.21 "Hg10 mi
5:00 AM23 °FClear.8 mph74%30.24 "Hg10 mi
4:30 AM23 °FClear.8 mph74%30.24 "Hg10 mi
4:00 AM25 °FClear.6 mph74%30.24 "Hg10 mi
3:30 AM25 °FClear.3 mph74%30.24 "Hg10 mi
3:00 AM27 °FClear.6 mph74%30.24 "Hg10 mi
2:30 AM27 °FClear.6 mph74%30.27 "Hg10 mi
2:00 AM28 °FClear.6 mph74%30.27 "Hg10 mi
1:30 AM30 °FClear.6 mph69%30.27 "Hg10 mi
12:30 AM32 °FMostly cloudy.13 mph69%30.24 "HgN/A
12:00 AM32 °FMostly cloudy.13 mph69%30.27 "HgN/A
11:30 PM
Sun, Mar 1
32 °FMostly cloudy.13 mph69%30.27 "HgN/A
11:00 PM32 °FMostly cloudy.15 mph75%30.27 "HgN/A
10:30 PM32 °FMostly cloudy.13 mph75%30.27 "HgN/A
10:00 PM32 °FMostly cloudy.13 mph75%30.27 "HgN/A
9:30 PM32 °FMostly cloudy.13 mph75%30.27 "HgN/A
9:00 PM32 °FMostly cloudy.13 mph75%30.27 "HgN/A
8:30 PM32 °FMostly cloudy.13 mph75%30.27 "HgN/A
8:00 PM32 °FMostly cloudy.17 mph75%30.27 "HgN/A
7:30 PM32 °FMostly cloudy.15 mph75%30.27 "HgN/A
7:00 PM32 °FMostly cloudy.13 mph75%30.27 "HgN/A
6:30 PM32 °FMore clouds than sun.15 mph75%30.27 "HgN/A
6:00 PM32 °FMore clouds than sun.15 mph75%30.27 "HgN/A
5:30 PM32 °FMore clouds than sun.13 mph75%30.27 "HgN/A
5:00 PM32 °FMostly cloudy.13 mph75%30.27 "HgN/A
4:30 PM32 °FMostly cloudy.13 mph75%30.27 "HgN/A
4:00 PM32 °FPartly sunny.13 mph69%30.27 "HgN/A
3:30 PM32 °FPartly sunny.13 mph75%30.24 "HgN/A
3:00 PM32 °FBroken clouds.15 mph69%30.24 "HgN/A
2:30 PM32 °FBroken clouds.15 mph69%30.24 "HgN/A
2:00 PM30 °FBroken clouds.13 mph69%30.24 "HgN/A
1:30 PM30 °FBroken clouds.13 mph69%30.24 "HgN/A
1:00 PM30 °FMore clouds than sun.13 mph69%30.24 "HgN/A
12:30 PM28 °FMore clouds than sun.13 mph74%30.24 "HgN/A
12:00 PM28 °FMostly cloudy.10 mph74%30.27 "HgN/A
11:30 AM27 °FMostly cloudy.10 mph80%30.24 "HgN/A
11:00 AM27 °FMore clouds than sun.13 mph74%30.24 "HgN/A
10:30 AM25 °FMore clouds than sun.13 mph80%30.27 "HgN/A
10:00 AM25 °FMore clouds than sun.13 mph80%30.27 "HgN/A
9:30 AM23 °FBroken clouds.13 mph80%30.27 "HgN/A
9:00 AM23 °FMostly cloudy.13 mph80%30.27 "HgN/A
Weather by CustomWeather, © 2015

See weather overviewHow to use our weather pages